Big Bear City, CA

6:18 PM PDT on August 19, 2017 (GMT -0700)
Big Bear City

Weather History for KL35 - January, 2013

Change the Weather History Date:

Saturday, January 12, 2013

  Actual Average (KBUO) Record (KBUO)
Temperature  
Mean Temperature 14 °F -  
Max Temperature 28 °F 58 °F 64 °F (2000)
Min Temperature 1 °F 40 °F 33 °F (2001)
Degree Days  
Heating Degree Days 50    
Moisture  
Dew Point 0 °F    
Average Humidity 63    
Maximum Humidity 85    
Minimum Humidity 23    
Precipitation  
Precipitation 0.00 in - - ()
Sea Level Pressure  
Sea Level Pressure 29.92 in    
Wind  
Wind Speed 1 mph (East)    
Max Wind Speed 9 mph    
Max Gust Speed -    
Visibility 9 miles    
Events Snow    
Averages and records for this station are not official NWS values.
T = Trace of Precipitation, MM = Missing Value Source: NWS Daily Summary

Daily Weather History Graph

Daily Weather History Graph

Search for Another Location

Airport or City:

Trip Planner

Search our weather history database for the weather conditions in past years. The results will help you decide how hot, cold, wet, or windy it might be!

Date:

Astronomy

Jan. 12, 2013 Rise Set
Actual Time 6:53 AM PST 4:58 PM PST
Civil Twilight 6:26 AM PST 5:25 PM PST
Nautical Twilight 5:55 AM PST 5:56 PM PST
Astronomical Twilight 5:25 AM PST 6:26 PM PST
Moon 7:20 AM PST (1/12) 6:26 PM PST (1/12)
Length of Visible Light 10h 59m
Length of Day
10h 04m
New Moon, 2% of the Moon is Illuminated
Jan 12
New Moon
Jan 18
First Quarter
Jan 26
Full
Feb 3
Last Quarter
Feb 9
New

Hourly Weather History & Observations

Time (PST) Temp. Windchill Dew Point Humidity Pressure Visibility Wind Dir Wind Speed Gust Speed Precip Events Conditions
12:15 AM 8.6 °F - 3.2 °F 79% 29.87 in 1.0 mi Calm Calm - N/A Snow Light Snow
12:35 AM 6.8 °F - 3.2 °F 85% 29.87 in 1.0 mi Calm Calm - N/A Snow Light Snow
12:55 AM 6.8 °F - 1.4 °F 79% 29.87 in 3.0 mi Calm Calm - N/A   Haze
1:15 AM 5.0 °F - 1.4 °F 85% 29.88 in 10.0 mi Calm Calm - N/A   Clear
1:35 AM 5.0 °F - -0.4 °F 78% 29.88 in 10.0 mi Calm Calm - N/A   Clear
1:55 AM 3.2 °F - -0.4 °F 85% 29.88 in 10.0 mi Calm Calm - N/A   Clear
2:15 AM 5.0 °F - -0.4 °F 78% 29.88 in 10.0 mi Calm Calm - N/A   Mostly Cloudy
2:35 AM 6.8 °F - 1.4 °F 79% 29.88 in 10.0 mi Calm Calm - N/A   Overcast
2:55 AM 6.8 °F - 1.4 °F 79% 29.88 in 10.0 mi Calm Calm - N/A   Overcast
3:15 AM 6.8 °F - 1.4 °F 79% 29.88 in 10.0 mi Calm Calm - N/A   Mostly Cloudy
3:35 AM 6.8 °F - 1.4 °F 79% 29.87 in 10.0 mi Calm Calm - N/A   Scattered Clouds
3:55 AM 6.8 °F - 1.4 °F 79% 29.88 in 7.0 mi Calm Calm - N/A Snow Light Snow
4:15 AM 6.8 °F - 1.4 °F 79% 29.88 in 5.0 mi Calm Calm - N/A Snow Light Snow
4:35 AM 5.0 °F - 1.4 °F 85% 29.88 in 10.0 mi Calm Calm - N/A   Scattered Clouds
4:55 AM 5.0 °F - -0.4 °F 78% 29.88 in 10.0 mi Calm Calm - N/A   Clear
5:15 AM 5.0 °F -4.1 °F -0.4 °F 78% 29.89 in 10.0 mi North 4.6 mph - N/A   Clear
5:35 AM 5.0 °F -2.1 °F -0.4 °F 78% 29.90 in 10.0 mi North 3.5 mph - N/A   Clear
5:55 AM 3.2 °F - -2.2 °F 78% 29.91 in 10.0 mi Calm Calm - N/A   Clear
6:15 AM 3.2 °F - -4.0 °F 72% 29.92 in 10.0 mi Calm Calm - N/A   Clear
6:35 AM 1.4 °F - -4.0 °F 78% 29.92 in 10.0 mi Calm Calm - N/A   Clear
6:55 AM 1.4 °F - -4.0 °F 78% 29.93 in 7.0 mi Calm Calm - N/A   Clear
7:15 AM 1.4 °F - -5.8 °F 72% 29.94 in 10.0 mi Calm Calm - N/A   Clear
7:35 AM 1.4 °F - -4.0 °F 78% 29.94 in 10.0 mi Calm Calm - N/A   Clear
7:55 AM 3.2 °F - -2.2 °F 78% 29.95 in 7.0 mi Calm Calm - N/A   Clear
8:15 AM 5.0 °F - -0.4 °F 78% 29.96 in 7.0 mi Calm Calm - N/A   Clear
8:35 AM 10.4 °F - 3.2 °F 73% 29.96 in 10.0 mi Calm Calm - N/A   Clear
8:55 AM 14.0 °F - 6.8 °F 73% 29.96 in 10.0 mi Calm Calm - N/A   Clear
9:15 AM 17.6 °F 12.3 °F 8.6 °F 68% 29.95 in 10.0 mi East 3.5 mph - N/A   Clear
9:55 AM 21.2 °F 13.6 °F 3.2 °F 46% 29.96 in 10.0 mi ESE 5.8 mph - N/A   Clear
10:15 AM 23.0 °F 17.0 °F 5.0 °F 46% 29.96 in 10.0 mi East 4.6 mph - N/A   Clear
10:35 AM 23.0 °F - 1.4 °F 39% 29.96 in 10.0 mi Calm Calm - N/A   Clear
10:55 AM 24.8 °F 20.5 °F -0.4 °F 34% 29.95 in 10.0 mi ESE 3.5 mph - N/A   Clear
11:35 AM 26.6 °F 20.0 °F -4.0 °F 26% 29.93 in 10.0 mi ENE 5.8 mph - N/A   Clear
11:55 AM 26.6 °F 17.5 °F -4.0 °F 26% 29.93 in 10.0 mi ENE 9.2 mph - N/A   Clear
12:15 PM 26.6 °F 19.1 °F -2.2 °F 29% 29.92 in 10.0 mi East 6.9 mph - N/A   Clear
12:35 PM 26.6 °F 20.0 °F -2.2 °F 29% 29.91 in 10.0 mi East 5.8 mph - N/A   Clear
12:55 PM 26.6 °F 19.1 °F -4.0 °F 26% 29.91 in 10.0 mi East 6.9 mph - N/A   Clear
1:15 PM 28.4 °F 23.3 °F -5.8 °F 23% 29.91 in 10.0 mi East 4.6 mph - N/A   Clear
1:35 PM 26.6 °F 20.0 °F -5.8 °F 24% 29.91 in 10.0 mi ENE 5.8 mph - N/A   Clear
1:55 PM 26.6 °F 18.2 °F -5.8 °F 24% 29.91 in 10.0 mi East 8.1 mph - N/A   Clear
2:15 PM 26.6 °F 20.0 °F -4.0 °F 26% 29.92 in 10.0 mi East 5.8 mph - N/A   Clear
2:35 PM 26.6 °F 19.1 °F -0.4 °F 31% 29.92 in 10.0 mi East 6.9 mph - N/A   Clear
2:55 PM 26.6 °F 19.1 °F 1.4 °F 34% 29.92 in 10.0 mi ESE 6.9 mph - N/A   Clear
3:15 PM 24.8 °F 17.9 °F 1.4 °F 36% 29.92 in 10.0 mi East 5.8 mph - N/A   Clear
3:35 PM 23.0 °F 13.9 °F 3.2 °F 43% 29.92 in 10.0 mi East 8.1 mph - N/A   Clear
4:15 PM 21.2 °F 14.9 °F 3.2 °F 46% 29.92 in 10.0 mi ESE 4.6 mph - N/A   Clear
4:35 PM 21.2 °F 16.4 °F 3.2 °F 46% 29.92 in 10.0 mi East 3.5 mph - N/A   Clear
5:15 PM 17.6 °F - 5.0 °F 58% 29.92 in 10.0 mi Calm Calm - N/A   Clear
5:35 PM 15.8 °F - 3.2 °F 58% 29.93 in 10.0 mi Calm Calm - N/A   Clear
5:55 PM 14.0 °F - 1.4 °F 57% 29.93 in 10.0 mi Calm Calm - N/A   Clear
6:15 PM 12.2 °F - 1.4 °F 62% 29.93 in 10.0 mi Calm Calm - N/A   Clear
6:35 PM 12.2 °F - 1.4 °F 62% 29.93 in 10.0 mi Calm Calm - N/A   Clear
6:55 PM 10.4 °F - 1.4 °F 67% 29.94 in 10.0 mi Calm Calm - N/A   Clear
7:15 PM 10.4 °F - 1.4 °F 67% 29.94 in 10.0 mi Calm Calm - N/A   Clear
7:35 PM 8.6 °F - 1.4 °F 73% 29.94 in 10.0 mi Calm Calm - N/A   Clear
7:55 PM 8.6 °F - 1.4 °F 73% 29.94 in 10.0 mi Calm Calm - N/A   Clear
8:15 PM 6.8 °F - -0.4 °F 72% 29.94 in 10.0 mi Calm Calm - N/A   Clear
8:35 PM 5.0 °F - -0.4 °F 78% 29.94 in 10.0 mi Calm Calm - N/A   Clear
8:55 PM 5.0 °F - -0.4 °F 78% 29.94 in 10.0 mi Calm Calm - N/A   Clear
9:15 PM 5.0 °F - -0.4 °F 78% 29.94 in 10.0 mi Calm Calm - N/A   Clear
9:35 PM 5.0 °F - -0.4 °F 78% 29.95 in 10.0 mi Calm Calm - N/A   Clear
9:55 PM 3.2 °F - -2.2 °F 78% 29.95 in 10.0 mi Calm Calm - N/A   Clear
10:15 PM 3.2 °F - -4.0 °F 72% 29.95 in 10.0 mi Calm Calm - N/A   Clear
10:35 PM 3.2 °F - -4.0 °F 72% 29.95 in 10.0 mi Calm Calm - N/A   Clear
10:55 PM 1.4 °F - -4.0 °F 78% 29.95 in 7.0 mi Calm Calm - N/A   Clear
11:15 PM 1.4 °F - -4.0 °F 78% 29.95 in 10.0 mi Calm Calm - N/A   Clear
11:35 PM 1.4 °F - -4.0 °F 78% 29.95 in 5.0 mi Calm Calm - N/A   Haze
11:55 PM 1.4 °F - -4.0 °F 78% 29.95 in 10.0 mi Calm Calm - N/A   Scattered Clouds